Regional Weather Roundup
Issued by NWS Wilmington, NC

Home | Current Version | Previous Version | Text Only | Print | Product List | Glossary On
Versions: 1 2 3 4 5 6 7 8 9 10 11 12 13 14 15 16 17 18 19 20 21 22 23 24 25 26 27
000
ASUS42 KILM 301313
RWRILM
RWRILM
REGIONAL HOURLY WEATHER ROUNDUP
NATIONAL WEATHER SERVICE WILMINGTON NC
900 AM EDT SAT APR 30 2016

NOTE: "FAIR" INDICATES FEW OR NO CLOUDS BELOW 12,000 FEET WITH NO
SIGNIFICANT WEATHER AND/OR OBSTRUCTIONS TO VISIBILITY.

...............WFO WILMINGTON COUNTY WARNING AREA...............

......COASTAL NC AND SC COUNTIES......

CITY           SKY/WX    TMP DP  RH WIND       PRES   REMARKS
WILMINGTON     CLOUDY    65  60  84 E10       30.10R
N MYRTLE BEACH MOSUNNY   69  64  84 E12       30.07S FOG
MYRTLE BEACH   PTSUNNY   70  61  73 E12       30.08F

......INLAND NC AND SC COUNTIES.......

CITY           SKY/WX    TMP DP  RH WIND       PRES   REMARKS
LUMBERTON      CLOUDY    66  60  81 E8        30.08R
ELIZABETHTOWN  CLOUDY    63  60  91 E3        30.10S
WHITEVILLE     CLOUDY    65  62  89 E8        30.08S FOG
FLORENCE       CLOUDY    70  66  87 SE14      30.04F
DARLINGTON     NOT AVBL
KINGSTREE      CLOUDY    68  64  88 E7        30.04F
HARTSVILLE     CLOUDY   N/A N/A N/A SE8       30.04R
BENNETTSVILLE  CLOUDY    72  64  78 E10       30.06R
CONWAY         CLOUDY    64  64 100 E5        30.07S FOG
GEORGETOWN     CLOUDY    70  70 100 E8        30.06S
MARION         CLOUDY    64  63  94 E8        30.07R FOG

....................REST OF NORTH CAROLINA......................

.........EASTERN NC.........

CITY           SKY/WX    TMP DP  RH WIND       PRES   REMARKS
CAPE HATTERAS  CLOUDY    60  54  80 NE12G18   30.13R
JACKSONVILLE   CLOUDY    61  58  90 E12       30.13R
MOREHEAD CITY  CLOUDY    61  56  83 NE8       30.13S
KENANSVILLE    CLOUDY    59  58  94 CALM      30.13S FOG
NEW BERN       CLOUDY    59  54  83 NE3       30.15R
ELIZABETH CITY CLOUDY    56  52  86 NE13      30.15R

.........CENTRAL NC.........

CITY           SKY/WX    TMP DP  RH WIND       PRES   REMARKS
RALEIGH DURHAM CLOUDY    59  56  89 E9        30.13S
ROCKY MOUNT    CLOUDY    58  54  86 NE7       30.14R
ROANOKE RAPIDS NOT AVBL
FAYETTEVILLE   CLOUDY    63  59  87 NE5       30.10R
HOFFMAN        CLOUDY    65  61  85 SE10      30.07R

.........WESTERN NC.........

CITY           SKY/WX    TMP DP  RH WIND       PRES   REMARKS
CHARLOTTE      CLOUDY    65  62  90 E7        30.05S FOG
GREENSBORO     DRIZZLE   59  58  96 E9        30.10R FOG
HICKORY        NOT AVBL
BOONE          NOT AVBL
ASHEVILLE      NOT AVBL

.....................REST OF SOUTH CAROLINA.....................

.........EASTERN SC.........

CITY           SKY/WX    TMP DP  RH WIND       PRES   REMARKS
CHARLESTON     MOSUNNY   76  71  85 S8        30.02S
BEAUFORT MCAS  PTSUNNY   76  71  85 SE3       30.02R
HILTON HEAD    PTSUNNY   75  73  94 CALM      30.03R

.........CENTRAL SC.........

CITY           SKY/WX    TMP DP  RH WIND       PRES   REMARKS
COLUMBIA       CLOUDY    68  64  87 SE8       30.00F
ORANGEBURG     CLOUDY    70  66  87 SE6       30.02S
SUMTER SHAW    PTSUNNY   72  66  83 SE7       30.01S

.........WESTERN SC.........

CITY           SKY/WX    TMP DP  RH WIND       PRES   REMARKS
GREENVILLE     NOT AVBL
ROCK HILL      CLOUDY    65  61  87 CALM      30.05R
ANDERSON       MOSUNNY   71  55  56 E10       30.01R
CLEMSON        NOT AVBL
GREENWOOD      SUNNY     69  60  73 NE3       30.02R


...................COASTAL AND OFFSHORE REPORTS..................

................LOCAL PIERS AND NC RESERVE................


STATION/POSITION TIME  SKY/WX   TEMP    WIND        PRES    VSBY
                                AIR SEA DIR/SP/G
                 (UTC)          (F)     (DEG/KT/KT) (MB)    (MI)
JOHNY MRCER PIER 1200            65 69   60/ 16/ 18 1017.8R
NC RESRV MASNBRO NOT AVBL
OCEAN CREST PIER NOT AVBL
SPRINGMAID  PIER 1200            68 71   30/ 12/ 15 1017.8R


................COASTAL AND OFFSHORE BUOYS................


STATION/POSITION TIME  SKY/WX   TEMP    WIND        PRES    VSBY
                                AIR SEA DIR/SP/G
                 (UTC)          (F)     (DEG/KT/KT) (MB)    (MI)
DIMNDSHOAL 41025 1250            60 74   30/ 16/ 19 1019.9R
WVE H/P(F/S)=  5/11 SWL H/P/D(F/S/D)=  3/ 70/11

CAPE LOOKOUT     1300            61      50/ 13/ 14 1019.8F
ONSLOW BAY 41036 NOT AVBL
ONSLOW BAY 41064 NOT AVBL
ONSLOW BAY 41159 1225               67                N/A
WVE H/P(F/S)=  3/ 4

5SE WRITBC 41038 1208            66 68   80/ 16/ 21 1019.4R
MASNBO INL 41110 1206               68                N/A
WVE H/P(F/S)=  3/ 4

WILM HARBR 41108 1226               69                N/A
WVE H/P(F/S)=  3/ 3

27SE WRITB 41037 1208            66 69   60/ 17/ 23 1018.7R
FRYING PAN 41013 1200            70 70   40/ 10/ 12 1018.1R
SUNST NRSH 41024 1208            66 68   70/ 12/ 14 1018.1R
CAPRS NRSH 41029 1208            71 71   90/  4/  6 1016.6R
EDISTO     41004 1250            74 72   90/  6/  6 1016.6S
WVE H/P(F/S)=  2/ 9 SWL H/P/D(F/S/D)=  2/ 9



..........OFFSHORE BUOYS BEYOND 100 NM OFFSHORE...........
.....IN A TRIANGLE---HAT TO BERMUDA TO BAHAMAS TO HAT.....


STATION/POSITION TIME  SKY/WX   TEMP    WIND        PRES    VSBY
                                AIR SEA DIR/SP/G
                 (UTC)          (F)     (DEG/KT/KT) (MB)    (MI)
150E HAT   41001 NOT AVBL
W BERMUDA  41048 1250            71 70  220/ 12/ 14 1016.0F
WVE H/P(F/S)=  3/10 SWL H/P/D(F/S/D)=  2/ 70/10

ATLANTIC S 41049 1250            74 75   40/  8/ 10 1016.8R
WVE H/P(F/S)=  3/ 9 SWL H/P/D(F/S/D)=  3/ 70/ 9

E BAHAMAS  41046 1250            78 79  110/ 12/ 12 1015.0R
WVE H/P(F/S)=  3/ 8 SWL H/P/D(F/S/D)=  3/ 60/ 8

NE BAHAMAS 41047 1250            76 77   30/  6/  8 1016.5R
WVE H/P(F/S)=  3/10 SWL H/P/D(F/S/D)=  3/ 90/10

120E CANVRL41010 1220            76 77  150/  6/  6 1016.5R

END




USA.gov is the U.S. government's official web portal to all federal, state and local government web resources and services.